Location: Newark
(34.9500°N, 139.9667°E)
Time: 22:33:24
(UTC+00:00)

Vanguard 2 Rocket - Pass Details

Date: 16 December 2019
Orbit: 554 x 3326 km, 32.9° (Epoch: 24 January)

Event Time Altitude Azimuth Distance (km) Brightness Sun altitude
Rises 08:00:13 0° 256° (WSW) 7,199 13.7 -6.4°
Reaches altitude 10° 08:05:24 10° 256° (WSW) 5,986 12.7 -7.3°
Maximum altitude 08:23:01 79° 173° (S) 2,226 8.8 -10.7°
Enters shadow 08:32:29 13° 89° (E) 3,483 9.3 -12.5°
Drops below altitude 10° 08:33:05 10° 88° (E) 3,647 - -12.6°
Sets 08:35:28 0° 87° (E) 4,344 - -13.1°
